[[{"header":{"parameterUnit":"m.s-1","parameterCategory":1,"la1":30.2992,"la2":30.254,"lo1":-89.0895,"lo2":-89.0443,"dy":0.0025,"dx":0.0025,"nx":19,"ny":19,"refTime":"2026-04-05T09:00:00:Z","depth":0,"parameterNumber":2,"parameterNumberName":"U-component_of_WINDS"},"data":[0,0,0,-2.3372,-2.3375,-2.3535,-2.3536,-2.3748,-2.375,0,0,0,0,0,0,0,0,0,0,0,-2.333,-2.3331,-2.3372,-2.3376,-2.3535,-2.3536,-2.3747,-2.375,0,0,0,0,0,0,0,0,0,0,0,-2.3329,-2.3331,-2.3333,-2.3376,-2.3535,-2.3536,-2.3747,-2.3624,0,0,0,0,0,0,0,0,0,0,-2.3467,-2.3433,-2.333,-2.3333,-2.3377,-2.3535,-2.3536,-2.3618,-2.3631,-2.3679,0,-2.3722,0,-2.3739,-2.3764,-2.3765,0,0,0,-2.3372,-2.3422,-2.346,-2.3333,-2.3379,-2.3535,-2.3462,-2.3625,-2.3641,-2.3697,-2.3725,-2.3733,-2.3743,-2.3766,-2.3767,-2.4051,-2.4052,0,0,-2.3364,-2.3361,-2.3449,-2.347,-2.3446,-2.3457,-2.3467,-2.3635,-2.3665,-2.3726,-2.3738,-2.3746,-2.3767,-2.3769,-2.405,-2.4051,0,0,0,-2.3341,-2.3355,-2.3389,-2.3462,-2.349,-2.3462,-2.3473,-2.3658,-2.3669,-2.374,-2.3749,-2.3769,-2.3771,-2.4048,-2.405,-2.4121,0,0,0,-2.3335,-2.3342,-2.3386,-2.3386,-2.3487,-2.3576,-2.3493,-2.3657,-2.3676,-2.3748,-2.3769,-2.3773,-2.4046,-2.4049,-2.4116,-2.4156,0,0,0,-2.3318,-2.3339,-2.3364,-2.3385,-2.3454,-2.3573,-2.3594,-2.3662,-2.3682,-2.3765,-2.3774,-2.4045,-2.4049,-2.4111,-2.4148,-2.423,0,0,0,-2.3298,-2.3426,-2.3365,-2.3511,-2.3452,-2.3616,-2.3593,-2.3715,-2.3795,-2.377,-2.4047,-2.405,-2.4109,-2.4143,-2.4224,-2.4298,-2.4329,0,0,-2.3458,-2.3445,-2.3531,-2.3481,-2.3655,-2.3592,-2.3776,-2.3852,-2.3862,-2.3987,-2.3994,-2.4118,-2.4147,-2.4228,-2.45,-2.4524,0,0,0,-2.3581,-2.3642,-2.3689,-2.3764,-2.3825,-2.388,-2.3927,-2.3955,-2.4061,-2.3926,-2.4169,-2.4187,-2.4235,-2.427,-2.4291,-2.4332,-2.4066,-2.4066,-2.4065,-2.3804,-2.3809,-2.3952,-2.3976,-2.405,-2.4097,-2.4157,-2.4202,-2.4187,-2.4245,-2.4282,-2.4446,-2.4487,-2.4503,-2.4546,-2.4321,-2.4322,-2.4322,-2.4322,-2.4038,-2.4126,-2.4102,-2.4231,-2.4236,-2.4345,-2.4395,-2.438,-2.4482,-2.4418,-2.4461,-2.4391,-2.4529,-2.4567,-2.4327,-2.4327,-2.4326,-2.4325,-2.4325,-2.4185,-2.4228,-2.426,-2.4368,-2.4452,-2.4472,-2.4571,-2.4572,-2.4574,-2.4615,-2.4655,-2.4654,-2.4653,-2.4634,-2.4635,-2.4635,-2.4636,-2.4636,-2.4636,-2.4326,-2.4358,-2.4441,-2.4515,-2.4563,-2.4627,-2.4674,-2.4722,-2.4774,-2.4767,-2.4768,-2.4747,-2.4541,-2.449,-2.4645,-2.4644,-2.4643,-2.4642,-2.4641,-2.4562,-2.4508,-2.4637,-2.4685,-2.4771,-2.4853,-2.4853,-2.4949,-2.4988,-2.5037,-2.5006,-2.4854,-2.4841,-2.4825,-2.4783,-2.5004,-2.5004,-2.5004,-2.5004,-2.4686,-2.4679,-2.481,-2.4887,-2.4962,-2.4974,-2.5118,-2.5156,-2.5187,-2.5211,-2.5179,-2.5123,-2.5106,-2.5103,-2.5081,-2.5041,-2.5324,-2.5324,-2.5324,-2.4832,-2.4832,-2.4955,-2.4984,-2.5051,-2.5108,-2.5244,-2.5333,-2.5356,-2.5337,-2.5231,-2.5217,-2.5126,-2.5096,-2.5075,-2.5041,-2.4968,0,0]},{"header":{"parameterUnit":"m.s-1","parameterCategory":1,"la1":30.2992,"la2":30.254,"lo1":-89.0895,"lo2":-89.0443,"dy":0.0025,"dx":0.0025,"nx":19,"ny":19,"refTime":"2026-04-05T09:00:00:Z","depth":0,"parameterNumber":3,"parameterNumberName":"V-component_of_WINDS"},"data":[0,0,0,-4.3225,-4.3227,-4.3337,-4.3337,-4.3484,-4.3486,0,0,0,0,0,0,0,0,0,0,0,-4.32,-4.3201,-4.3224,-4.3227,-4.3337,-4.3337,-4.3484,-4.3486,0,0,0,0,0,0,0,0,0,0,0,-4.3199,-4.32,-4.3202,-4.3228,-4.3337,-4.3337,-4.3484,-4.3398,0,0,0,0,0,0,0,0,0,0,-4.329,-4.3275,-4.32,-4.3202,-4.3229,-4.3337,-4.3338,-4.3393,-4.3403,-4.3438,0,-4.3475,0,-4.3483,-4.3496,-4.3497,0,0,0,-4.3221,-4.3267,-4.329,-4.3202,-4.323,-4.3337,-4.3286,-4.3399,-4.341,-4.3451,-4.3477,-4.3482,-4.3485,-4.3497,-4.3498,-4.373,-4.3731,0,0,-4.3215,-4.3223,-4.3283,-4.3297,-4.3285,-4.3282,-4.3289,-4.3405,-4.3432,-4.3477,-4.3485,-4.3488,-4.3498,-4.35,-4.3729,-4.373,0,0,0,-4.3202,-4.3219,-4.3239,-4.3292,-4.3311,-4.3286,-4.3294,-4.3427,-4.3433,-4.3487,-4.349,-4.3499,-4.3501,-4.3727,-4.3729,-4.3806,0,0,0,-4.3198,-4.3211,-4.3236,-4.3242,-4.3309,-4.3371,-4.3313,-4.3425,-4.3438,-4.3489,-4.3499,-4.3503,-4.3726,-4.3728,-4.3801,-4.384,0,0,0,-4.319,-4.321,-4.3229,-4.3242,-4.329,-4.3369,-4.3382,-4.3428,-4.344,-4.3497,-4.3503,-4.3725,-4.3728,-4.3796,-4.3832,-4.3903,0,0,0,-4.3182,-4.3294,-4.323,-4.3356,-4.3289,-4.3417,-4.3381,-4.3475,-4.3533,-4.35,-4.3726,-4.3729,-4.3794,-4.3828,-4.3898,-4.3964,-4.3993,0,0,-4.3328,-4.3312,-4.3385,-4.3331,-4.3473,-4.34,-4.3551,-4.3595,-4.3592,-4.3683,-4.3689,-4.3802,-4.3832,-4.3902,-4.4151,-4.4173,0,0,0,-4.3434,-4.3486,-4.3522,-4.3579,-4.3618,-4.3652,-4.3673,-4.3689,-4.3767,-4.3642,-4.3847,-4.3864,-4.3905,-4.3936,-4.3956,-4.3989,-4.3744,-4.3744,-4.3743,-4.365,-4.3642,-4.3762,-4.3767,-4.3822,-4.3842,-4.3885,-4.3909,-4.3884,-4.3932,-4.3959,-4.4111,-4.4148,-4.4163,-4.4198,-4.3994,-4.3994,-4.3994,-4.3994,-4.3861,-4.3934,-4.3898,-4.4002,-4.3991,-4.4076,-4.4099,-4.4078,-4.4154,-4.409,-4.4126,-4.4057,-4.4188,-4.4218,-4.4,-4.3999,-4.3998,-4.3998,-4.3997,-4.4001,-4.4035,-4.4054,-4.4135,-4.4197,-4.4196,-4.4272,-4.4259,-4.4246,-4.4282,-4.4308,-4.4306,-4.4303,-4.4295,-4.4296,-4.4296,-4.4297,-4.4297,-4.4297,-4.4139,-4.4158,-4.4225,-4.4275,-4.4309,-4.4352,-4.4372,-4.4404,-4.4436,-4.442,-4.442,-4.4389,-4.4203,-4.4156,-4.4306,-4.4304,-4.4303,-4.4302,-4.4302,-4.4356,-4.4305,-4.4408,-4.4442,-4.4498,-4.456,-4.4542,-4.4609,-4.4633,-4.467,-4.4631,-4.4496,-4.4478,-4.4463,-4.4424,-4.4633,-4.4633,-4.4633,-4.4633,-4.4473,-4.4464,-4.4566,-4.4621,-4.4674,-4.4668,-4.4781,-4.4798,-4.4805,-4.4819,-4.4787,-4.4734,-4.4719,-4.471,-4.4689,-4.4653,-4.4916,-4.4916,-4.4916,-4.4605,-4.46,-4.4701,-4.4711,-4.4753,-4.4789,-4.4894,-4.4957,-4.4955,-4.4928,-4.4829,-4.4817,-4.4732,-4.4705,-4.4676,-4.4644,-4.4577,0,0]}]]